Time,TemperatureF,DewpointF,PressureIn,WindDirection,WindDirectionDegrees,WindSpeedMPH,WindSpeedGustMPH,Humidity,HourlyPrecipIn,Conditions,Clouds,dailyrainin,SoftwareType,DateUTC
2013-09-21 00:00:00,49.6,45.0,29.93,NW,305,0.0,3.0,84,0.00,,,0.00,VWS V14.01,2013-09-21 05:00:00,
2013-09-21 00:03:00,49.6,45.0,29.93,NW,305,0.0,0.0,84,0.00,,,0.00,VWS V14.01,2013-09-21 05:03:00,
2013-09-21 00:08:00,49.4,44.8,29.93,NW,304,0.0,0.0,84,0.00,,,0.00,VWS V14.01,2013-09-21 05:08:00,
2013-09-21 00:13:00,49.2,44.9,29.93,NW,304,0.0,0.0,85,0.00,,,0.00,VWS V14.01,2013-09-21 05:13:00,
2013-09-21 00:18:00,49.1,44.8,29.93,NW,304,0.0,0.0,85,0.00,,,0.00,VWS V14.01,2013-09-21 05:18:00,
2013-09-21 00:23:00,48.8,44.5,29.93,NW,305,0.0,0.0,85,0.00,,,0.00,VWS V14.01,2013-09-21 05:23:00,
2013-09-21 00:29:00,48.7,44.4,29.93,NW,305,0.0,0.0,85,0.00,,,0.00,VWS V14.01,2013-09-21 05:29:00,
2013-09-21 00:30:00,48.7,44.4,29.93,NW,305,0.0,0.0,85,0.00,,,0.00,VWS V14.01,2013-09-21 05:30:00,
2013-09-21 00:34:00,48.6,44.3,29.93,NW,305,0.0,0.0,85,0.00,,,0.00,VWS V14.01,2013-09-21 05:34:00,
2013-09-21 00:39:00,48.4,44.1,29.93,NW,305,0.0,0.0,85,0.00,,,0.00,VWS V14.01,2013-09-21 05:39:00,
2013-09-21 00:44:00,48.2,43.9,29.93,NW,304,0.0,0.0,85,0.00,,,0.00,VWS V14.01,2013-09-21 05:44:00,
2013-09-21 00:49:00,48.1,44.1,29.94,NW,305,0.0,0.0,86,0.00,,,0.00,VWS V14.01,2013-09-21 05:49:00,
2013-09-21 00:54:00,47.9,43.9,29.94,NW,305,0.0,0.0,86,0.00,,,0.00,VWS V14.01,2013-09-21 05:54:00,
2013-09-21 00:59:00,47.7,43.7,29.93,NW,305,0.0,0.0,86,0.00,,,0.00,VWS V14.01,2013-09-21 05:59:00,
2013-09-21 01:00:00,47.6,43.6,29.94,NW,305,0.0,0.0,86,0.00,,,0.00,VWS V14.01,2013-09-21 06:00:00,
2013-09-21 01:04:00,47.5,43.5,29.94,NW,305,0.0,0.0,86,0.00,,,0.00,VWS V14.01,2013-09-21 06:04:00,
2013-09-21 01:09:00,47.4,43.4,29.94,NW,305,0.0,0.0,86,0.00,,,0.00,VWS V14.01,2013-09-21 06:09:00,
2013-09-21 01:14:00,47.3,43.3,29.94,NW,305,0.0,0.0,86,0.00,,,0.00,VWS V14.01,2013-09-21 06:14:00,
2013-09-21 01:19:00,47.2,43.2,29.94,NW,305,0.0,0.0,86,0.00,,,0.00,VWS V14.01,2013-09-21 06:19:00,
2013-09-21 01:24:00,47.1,43.4,29.94,NW,305,0.0,0.0,87,0.00,,,0.00,VWS V14.01,2013-09-21 06:24:00,
2013-09-21 01:29:00,47.0,43.3,29.94,NW,304,0.0,0.0,87,0.00,,,0.00,VWS V14.01,2013-09-21 06:29:00,
2013-09-21 01:30:00,47.0,43.3,29.94,NW,305,0.0,0.0,87,0.00,,,0.00,VWS V14.01,2013-09-21 06:30:00,
2013-09-21 01:34:00,46.9,43.2,29.94,NW,305,0.0,0.0,87,0.00,,,0.00,VWS V14.01,2013-09-21 06:34:00,
2013-09-21 01:39:00,46.8,43.1,29.94,NW,305,0.0,0.0,87,0.00,,,0.00,VWS V14.01,2013-09-21 06:39:00,
2013-09-21 01:44:00,46.7,43.0,29.94,NW,305,0.0,0.0,87,0.00,,,0.00,VWS V14.01,2013-09-21 06:44:00,
2013-09-21 01:49:00,46.6,42.9,29.94,NW,304,0.0,0.0,87,0.00,,,0.00,VWS V14.01,2013-09-21 06:49:00,
2013-09-21 01:54:00,46.5,42.8,29.94,NW,305,0.0,0.0,87,0.00,,,0.00,VWS V14.01,2013-09-21 06:54:00,
2013-09-21 01:59:00,46.4,42.8,29.94,NW,304,0.0,0.0,87,0.00,,,0.00,VWS V14.01,2013-09-21 06:59:00,
2013-09-21 02:00:00,46.4,42.8,29.94,NW,304,0.0,0.0,87,0.00,,,0.00,VWS V14.01,2013-09-21 07:00:00,
2013-09-21 02:04:00,46.3,42.7,29.94,NW,304,0.0,0.0,87,0.00,,,0.00,VWS V14.01,2013-09-21 07:04:00,
2013-09-21 02:09:00,46.2,42.8,29.94,NW,305,0.0,0.0,88,0.00,,,0.00,VWS V14.01,2013-09-21 07:09:00,
2013-09-21 02:15:00,46.1,42.8,29.94,NW,305,0.0,0.0,88,0.00,,,0.00,VWS V14.01,2013-09-21 07:15:00,
2013-09-21 02:20:00,46.1,42.8,29.94,NW,304,0.0,0.0,88,0.00,,,0.00,VWS V14.01,2013-09-21 07:20:00,
2013-09-21 02:25:00,46.0,43.8,29.94,NW,305,0.0,0.0,92,0.00,,,0.00,VWS V14.01,2013-09-21 07:25:00,
2013-09-21 02:30:00,46.0,42.7,29.94,NW,305,0.0,0.0,88,0.00,,,0.00,VWS V14.01,2013-09-21 07:30:00,
2013-09-21 02:35:00,45.9,42.5,29.94,NW,305,0.0,0.0,88,0.00,,,0.00,VWS V14.01,2013-09-21 07:35:00,
2013-09-21 02:40:00,45.8,42.5,29.94,NW,305,0.0,0.0,88,0.00,,,0.00,VWS V14.01,2013-09-21 07:40:00,
2013-09-21 02:45:00,45.6,42.3,29.94,NW,305,0.0,0.0,88,0.00,,,0.00,VWS V14.01,2013-09-21 07:45:00,
2013-09-21 02:50:00,45.5,42.2,29.94,NW,305,0.0,0.0,88,0.00,,,0.00,VWS V14.01,2013-09-21 07:50:00,
2013-09-21 02:55:00,45.4,42.1,29.95,NW,305,0.0,0.0,88,0.00,,,0.00,VWS V14.01,2013-09-21 07:55:00,
2013-09-21 03:00:00,45.3,42.0,29.95,NW,305,0.0,0.0,88,0.00,,,0.00,VWS V14.01,2013-09-21 08:00:00,
2013-09-21 03:05:00,45.2,41.9,29.95,NW,305,0.0,0.0,88,0.00,,,0.00,VWS V14.01,2013-09-21 08:05:00,
2013-09-21 03:10:00,45.2,41.9,29.95,NW,305,0.0,0.0,88,0.00,,,0.00,VWS V14.01,2013-09-21 08:10:00,
2013-09-21 03:15:00,45.2,42.2,29.95,NW,305,0.0,0.0,89,0.00,,,0.00,VWS V14.01,2013-09-21 08:15:00,
2013-09-21 03:20:00,45.2,42.2,29.95,NW,305,0.0,0.0,89,0.00,,,0.00,VWS V14.01,2013-09-21 08:20:00,
2013-09-21 03:25:00,45.1,42.1,29.95,NW,305,0.0,0.0,89,0.00,,,0.00,VWS V14.01,2013-09-21 08:25:00,
2013-09-21 03:30:00,45.1,42.1,29.95,NW,305,0.0,0.0,89,0.00,,,0.00,VWS V14.01,2013-09-21 08:30:00,
2013-09-21 03:35:00,45.0,42.0,29.95,NW,305,0.0,0.0,89,0.00,,,0.00,VWS V14.01,2013-09-21 08:35:00,
2013-09-21 03:40:00,45.1,42.1,29.95,NW,304,0.0,0.0,89,0.00,,,0.00,VWS V14.01,2013-09-21 08:40:00,
2013-09-21 03:45:00,45.1,42.1,29.95,NW,305,0.0,0.0,89,0.00,,,0.00,VWS V14.01,2013-09-21 08:45:00,
2013-09-21 03:50:00,45.2,42.2,29.95,NW,305,0.0,0.0,89,0.00,,,0.00,VWS V14.01,2013-09-21 08:50:00,
2013-09-21 03:55:00,45.1,42.1,29.95,NW,304,0.0,0.0,89,0.00,,,0.00,VWS V14.01,2013-09-21 08:55:00,
2013-09-21 04:00:00,45.2,42.2,29.96,NW,304,0.0,0.0,89,0.00,,,0.00,VWS V14.01,2013-09-21 09:00:00,
2013-09-21 04:06:00,45.2,42.2,29.96,NW,305,0.0,0.0,89,0.00,,,0.00,VWS V14.01,2013-09-21 09:06:00,
2013-09-21 04:11:00,45.3,42.3,29.96,NW,305,0.0,0.0,89,0.00,,,0.00,VWS V14.01,2013-09-21 09:11:00,
2013-09-21 04:16:00,45.4,42.3,29.96,NW,305,0.0,0.0,89,0.00,,,0.00,VWS V14.01,2013-09-21 09:16:00,
2013-09-21 04:21:00,45.4,42.3,29.95,NW,304,0.0,0.0,89,0.00,,,0.00,VWS V14.01,2013-09-21 09:21:00,
2013-09-21 04:26:00,45.3,42.5,29.96,NW,306,0.0,0.0,90,0.00,,,0.00,VWS V14.01,2013-09-21 09:26:00,
2013-09-21 04:30:00,45.2,42.5,29.96,NW,305,0.0,0.0,90,0.00,,,0.00,VWS V14.01,2013-09-21 09:30:00,
2013-09-21 04:31:00,45.3,42.5,29.96,NW,305,0.0,0.0,90,0.00,,,0.00,VWS V14.01,2013-09-21 09:31:00,
2013-09-21 04:36:00,45.2,42.2,29.96,NW,305,0.0,0.0,89,0.00,,,0.00,VWS V14.01,2013-09-21 09:36:00,
2013-09-21 04:41:00,45.1,42.1,29.96,NW,305,0.0,0.0,89,0.00,,,0.00,VWS V14.01,2013-09-21 09:41:00,
2013-09-21 04:46:00,44.9,41.9,29.96,NW,305,0.0,0.0,89,0.00,,,0.00,VWS V14.01,2013-09-21 09:46:00,
2013-09-21 04:51:00,44.7,41.7,29.96,NW,306,0.0,0.0,89,0.00,,,0.00,VWS V14.01,2013-09-21 09:51:00,
2013-09-21 04:56:00,44.6,41.6,29.96,NW,304,0.0,0.0,89,0.00,,,0.00,VWS V14.01,2013-09-21 09:56:00,
2013-09-21 05:00:00,44.4,41.4,29.96,NW,304,0.0,0.0,89,0.00,,,0.00,VWS V14.01,2013-09-21 10:00:00,
2013-09-21 05:01:00,44.4,41.4,29.96,NW,304,0.0,0.0,89,0.00,,,0.00,VWS V14.01,2013-09-21 10:01:00,
2013-09-21 05:06:00,44.3,41.3,29.96,NW,306,0.0,0.0,89,0.00,,,0.00,VWS V14.01,2013-09-21 10:06:00,
2013-09-21 05:11:00,44.2,41.2,29.96,NW,305,0.0,0.0,89,0.00,,,0.00,VWS V14.01,2013-09-21 10:11:00,
2013-09-21 05:16:00,44.2,41.2,29.97,NW,305,0.0,0.0,89,0.00,,,0.00,VWS V14.01,2013-09-21 10:16:00,
2013-09-21 05:21:00,44.2,41.2,29.97,NW,306,0.0,0.0,89,0.00,,,0.00,VWS V14.01,2013-09-21 10:21:00,
2013-09-21 05:26:00,44.1,41.1,29.97,NW,305,0.0,0.0,89,0.00,,,0.00,VWS V14.01,2013-09-21 10:26:00,
2013-09-21 05:30:00,44.1,41.4,29.97,NW,305,0.0,0.0,90,0.00,,,0.00,VWS V14.01,2013-09-21 10:30:00,
2013-09-21 05:31:00,44.1,41.4,29.97,NW,305,0.0,0.0,90,0.00,,,0.00,VWS V14.01,2013-09-21 10:31:00,
2013-09-21 05:37:00,44.0,41.3,29.97,NW,305,0.0,0.0,90,0.00,,,0.00,VWS V14.01,2013-09-21 10:37:00,
2013-09-21 05:42:00,44.0,41.3,29.97,NW,305,0.0,0.0,90,0.00,,,0.00,VWS V14.01,2013-09-21 10:42:00,
2013-09-21 05:47:00,43.9,40.9,29.97,NW,305,0.0,0.0,89,0.00,,,0.00,VWS V14.01,2013-09-21 10:47:00,
2013-09-21 05:52:00,43.8,40.8,29.97,NW,305,0.0,0.0,89,0.00,,,0.00,VWS V14.01,2013-09-21 10:52:00,
2013-09-21 05:57:00,43.8,40.8,29.97,NW,305,0.0,0.0,89,0.00,,,0.00,VWS V14.01,2013-09-21 10:57:00,
2013-09-21 06:00:00,43.8,41.1,29.97,NW,306,0.0,0.0,90,0.00,,,0.00,VWS V14.01,2013-09-21 11:00:00,
2013-09-21 06:02:00,43.8,41.1,29.97,NW,304,0.0,0.0,90,0.00,,,0.00,VWS V14.01,2013-09-21 11:02:00,
2013-09-21 06:07:00,43.8,41.1,29.98,NW,305,0.0,0.0,90,0.00,,,0.00,VWS V14.01,2013-09-21 11:07:00,
2013-09-21 06:12:00,43.7,41.0,29.98,NW,306,0.0,0.0,90,0.00,,,0.00,VWS V14.01,2013-09-21 11:12:00,
2013-09-21 06:17:00,43.6,40.9,29.98,NW,305,0.0,0.0,90,0.00,,,0.00,VWS V14.01,2013-09-21 11:17:00,
2013-09-21 06:22:00,43.5,40.8,29.98,NW,305,0.0,0.0,90,0.00,,,0.00,VWS V14.01,2013-09-21 11:22:00,
2013-09-21 06:27:00,43.4,40.7,29.98,NW,304,0.0,0.0,90,0.00,,,0.00,VWS V14.01,2013-09-21 11:27:00,
2013-09-21 06:30:00,43.4,40.7,29.98,NW,305,0.0,0.0,90,0.00,,,0.00,VWS V14.01,2013-09-21 11:30:00,
2013-09-21 06:32:00,43.3,40.6,29.98,NW,305,0.0,0.0,90,0.00,,,0.00,VWS V14.01,2013-09-21 11:32:00,
2013-09-21 06:37:00,43.2,40.5,29.98,NW,306,0.0,0.0,90,0.00,,,0.00,VWS V14.01,2013-09-21 11:37:00,
2013-09-21 06:42:00,43.1,40.4,29.98,NW,306,0.0,0.0,90,0.00,,,0.00,VWS V14.01,2013-09-21 11:42:00,
2013-09-21 06:47:00,43.1,40.4,29.98,NW,304,0.0,0.0,90,0.00,,,0.00,VWS V14.01,2013-09-21 11:47:00,
2013-09-21 06:52:00,43.0,40.3,29.98,NW,305,0.0,0.0,90,0.00,,,0.00,VWS V14.01,2013-09-21 11:52:00,
2013-09-21 06:57:00,42.9,40.2,29.98,NW,306,0.0,0.0,90,0.00,,,0.00,VWS V14.01,2013-09-21 11:57:00,
2013-09-21 07:00:00,42.8,40.1,29.98,NNW,343,0.0,0.0,90,0.00,,,0.00,VWS V14.01,2013-09-21 12:00:00,
2013-09-21 07:02:00,42.8,40.1,29.98,NNW,343,0.0,0.0,90,0.00,,,0.00,VWS V14.01,2013-09-21 12:02:00,
2013-09-21 07:07:00,42.7,40.0,29.99,NNW,340,0.0,0.0,90,0.00,,,0.00,VWS V14.01,2013-09-21 12:07:00,
2013-09-21 07:12:00,42.7,40.0,29.99,NNW,340,0.0,0.0,90,0.00,,,0.00,VWS V14.01,2013-09-21 12:12:00,
2013-09-21 07:17:00,42.7,40.0,29.99,NNW,340,0.0,0.0,90,0.00,,,0.00,VWS V14.01,2013-09-21 12:17:00,
2013-09-21 07:22:00,42.7,40.0,29.99,NNW,341,0.0,0.0,90,0.00,,,0.00,VWS V14.01,2013-09-21 12:22:00,
2013-09-21 07:27:00,42.7,40.0,29.99,NNW,341,0.0,0.0,90,0.00,,,0.00,VWS V14.01,2013-09-21 12:27:00,
2013-09-21 07:30:00,42.7,40.0,29.99,NNW,340,0.0,0.0,90,0.00,,,0.00,VWS V14.01,2013-09-21 12:30:00,
2013-09-21 07:32:00,42.7,40.0,29.99,NNW,341,0.0,0.0,90,0.00,,,0.00,VWS V14.01,2013-09-21 12:32:00,
2013-09-21 07:37:00,42.9,40.2,29.99,NNW,336,0.0,0.0,90,0.00,,,0.00,VWS V14.01,2013-09-21 12:37:00,
2013-09-21 07:42:00,43.6,40.9,29.99,NNW,335,0.0,0.0,90,0.00,,,0.00,VWS V14.01,2013-09-21 12:42:00,
2013-09-21 07:48:00,44.2,41.5,29.99,NW,320,0.0,0.0,90,0.00,,,0.00,VWS V14.01,2013-09-21 12:48:00,
2013-09-21 07:53:00,44.8,42.0,29.99,NW,320,0.0,0.0,90,0.00,,,0.00,VWS V14.01,2013-09-21 12:53:00,
2013-09-21 07:58:00,45.4,42.6,29.99,NW,321,0.0,0.0,90,0.00,,,0.00,VWS V14.01,2013-09-21 12:58:00,
2013-09-21 08:00:00,45.8,43.0,29.99,NW,320,0.0,0.0,90,0.00,,,0.00,VWS V14.01,2013-09-21 13:00:00,
2013-09-21 08:03:00,45.9,43.1,29.99,NW,320,0.0,0.0,90,0.00,,,0.00,VWS V14.01,2013-09-21 13:03:00,
2013-09-21 08:08:00,46.2,43.4,29.99,NW,320,0.0,0.0,90,0.00,,,0.00,VWS V14.01,2013-09-21 13:08:00,
2013-09-21 08:13:00,46.5,44.0,29.99,NW,320,0.0,0.0,91,0.00,,,0.00,VWS V14.01,2013-09-21 13:13:00,
2013-09-21 08:18:00,47.0,44.2,29.99,NW,321,0.0,0.0,90,0.00,,,0.00,VWS V14.01,2013-09-21 13:18:00,
2013-09-21 08:23:00,47.4,44.9,29.99,NW,316,0.0,3.0,91,0.00,,,0.00,VWS V14.01,2013-09-21 13:23:00,
2013-09-21 08:28:00,47.6,44.8,29.99,WNW,297,0.0,6.0,90,0.00,,,0.00,VWS V14.01,2013-09-21 13:28:00,
2013-09-21 08:30:00,47.7,45.2,29.99,WNW,296,0.0,6.0,91,0.00,,,0.00,VWS V14.01,2013-09-21 13:30:00,
2013-09-21 08:33:00,47.9,45.4,29.99,WNW,296,0.0,0.0,91,0.00,,,0.00,VWS V14.01,2013-09-21 13:33:00,
2013-09-21 08:38:00,48.5,45.7,29.99,WNW,296,1.0,3.0,90,0.00,,,0.00,VWS V14.01,2013-09-21 13:38:00,
2013-09-21 08:43:00,48.8,46.0,29.99,WNW,297,0.0,3.0,90,0.00,,,0.00,VWS V14.01,2013-09-21 13:43:00,
2013-09-21 08:48:00,49.4,46.3,29.99,NW,308,0.0,5.0,89,0.00,,,0.00,VWS V14.01,2013-09-21 13:48:00,
2013-09-21 08:53:00,50.1,46.4,29.99,NW,310,0.0,5.0,87,0.00,,,0.00,VWS V14.01,2013-09-21 13:53:00,
2013-09-21 08:58:00,50.7,46.0,29.99,NW,325,0.0,6.0,84,0.00,,,0.00,VWS V14.01,2013-09-21 13:58:00,
2013-09-21 09:00:00,51.0,46.0,29.99,NW,325,4.0,6.0,83,0.00,,,0.00,VWS V14.01,2013-09-21 14:00:00,
2013-09-21 09:03:00,51.2,45.9,29.99,NW,323,0.0,5.0,82,0.00,,,0.00,VWS V14.01,2013-09-21 14:03:00,
2013-09-21 09:12:00,51.5,46.2,29.99,NNW,342,0.0,5.0,82,0.00,,,0.00,VWS V14.01,2013-09-21 14:12:00,
2013-09-21 09:17:00,51.9,45.6,29.99,NNW,335,0.0,6.0,79,0.00,,,0.00,VWS V14.01,2013-09-21 14:17:00,
2013-09-21 09:26:00,52.0,45.7,29.99,NNW,333,0.0,6.0,79,0.00,,,0.00,VWS V14.01,2013-09-21 14:26:00,
2013-09-21 09:36:00,52.5,45.2,30.00,WSW,250,3.0,6.0,76,0.00,,,0.00,VWS V14.01,2013-09-21 14:36:00,
2013-09-21 09:41:00,53.2,45.5,30.00,NNW,340,0.0,8.0,75,0.00,,,0.00,VWS V14.01,2013-09-21 14:41:00,
2013-09-21 09:46:00,53.4,45.3,30.00,WNW,298,0.0,8.0,74,0.00,,,0.00,VWS V14.01,2013-09-21 14:46:00,
2013-09-21 09:57:00,53.4,45.3,30.00,North,355,0.0,8.0,74,0.00,,,0.00,VWS V14.01,2013-09-21 14:57:00,
2013-09-21 10:00:00,53.9,45.8,30.00,NW,308,0.0,8.0,74,0.00,,,0.00,VWS V14.01,2013-09-21 15:00:00,
2013-09-21 10:02:00,54.0,45.5,30.00,NW,308,5.0,6.0,73,0.00,,,0.00,VWS V14.01,2013-09-21 15:02:00,
2013-09-21 10:07:00,54.2,45.8,30.00,North,354,0.0,6.0,73,0.00,,,0.00,VWS V14.01,2013-09-21 15:07:00,
2013-09-21 10:12:00,54.4,45.6,30.00,NW,306,3.0,7.0,72,0.00,,,0.00,VWS V14.01,2013-09-21 15:12:00,
2013-09-21 10:17:00,54.5,45.3,30.00,NNW,332,6.0,10.0,71,0.00,,,0.00,VWS V14.01,2013-09-21 15:17:00,
2013-09-21 10:22:00,54.6,45.8,30.00,NW,311,1.0,10.0,72,0.00,,,0.00,VWS V14.01,2013-09-21 15:22:00,
2013-09-21 10:27:00,54.7,45.5,30.00,NNW,334,0.0,10.0,71,0.00,,,0.00,VWS V14.01,2013-09-21 15:27:00,
2013-09-21 10:30:00,54.8,46.0,30.00,NNW,333,0.0,10.0,72,0.00,,,0.00,VWS V14.01,2013-09-21 15:30:00,
2013-09-21 10:32:00,54.9,46.1,30.00,NNW,334,5.0,8.0,72,0.00,,,0.00,VWS V14.01,2013-09-21 15:32:00,
2013-09-21 10:37:00,55.0,45.8,30.00,North,349,2.0,8.0,71,0.00,,,0.00,VWS V14.01,2013-09-21 15:37:00,
2013-09-21 10:42:00,55.1,46.2,30.00,North,2,0.0,8.0,72,0.00,,,0.00,VWS V14.01,2013-09-21 15:42:00,
2013-09-21 10:47:00,55.3,46.1,30.00,NW,315,0.0,8.0,71,0.00,,,0.00,VWS V14.01,2013-09-21 15:47:00,
2013-09-21 10:52:00,55.7,46.1,30.00,NW,314,0.0,8.0,70,0.00,,,0.00,VWS V14.01,2013-09-21 15:52:00,
2013-09-21 10:57:00,55.7,46.1,30.00,WNW,284,2.0,8.0,70,0.00,,,0.00,VWS V14.01,2013-09-21 15:57:00,
2013-09-21 11:00:00,56.0,46.7,30.00,WNW,301,0.0,8.0,71,0.00,,,0.00,VWS V14.01,2013-09-21 16:00:00,
2013-09-21 11:03:00,56.2,46.6,30.00,NW,314,3.0,7.0,70,0.00,,,0.00,VWS V14.01,2013-09-21 16:03:00,
2013-09-21 11:08:00,56.4,46.8,30.00,NW,311,0.0,7.0,70,0.00,,,0.00,VWS V14.01,2013-09-21 16:08:00,
2013-09-21 11:13:00,56.6,46.9,30.00,West,279,0.0,7.0,70,0.00,,,0.00,VWS V14.01,2013-09-21 16:13:00,
2013-09-21 11:18:00,56.4,46.4,30.00,NW,305,4.0,7.0,69,0.00,,,0.00,VWS V14.01,2013-09-21 16:18:00,
2013-09-21 11:23:00,56.5,46.1,30.00,NW,323,0.0,7.0,68,0.00,,,0.00,VWS V14.01,2013-09-21 16:23:00,
2013-09-21 11:28:00,56.6,46.9,30.00,West,281,0.0,7.0,70,0.00,,,0.00,VWS V14.01,2013-09-21 16:28:00,
2013-09-21 11:30:00,56.7,47.0,30.00,WSW,254,3.0,7.0,70,0.00,,,0.00,VWS V14.01,2013-09-21 16:30:00,
2013-09-21 11:33:00,56.8,46.8,30.00,WNW,302,0.0,7.0,69,0.00,,,0.00,VWS V14.01,2013-09-21 16:33:00,
2013-09-21 11:38:00,57.1,47.0,30.00,West,268,1.0,7.0,69,0.00,,,0.00,VWS V14.01,2013-09-21 16:38:00,
2013-09-21 11:43:00,57.1,46.7,30.00,NW,308,0.0,7.0,68,0.00,,,0.00,VWS V14.01,2013-09-21 16:43:00,
2013-09-21 11:48:00,57.1,47.0,30.00,West,264,0.0,7.0,69,0.00,,,0.00,VWS V14.01,2013-09-21 16:48:00,
2013-09-21 11:53:00,57.5,47.0,30.00,NNW,333,3.0,8.0,68,0.00,,,0.00,VWS V14.01,2013-09-21 16:53:00,
2013-09-21 12:00:00,57.4,46.9,30.00,NNW,331,3.0,3.0,68,0.00,,,0.00,VWS V14.01,2013-09-21 17:00:00,
2013-09-21 12:05:00,57.3,46.5,30.00,NW,308,0.0,5.0,67,0.00,,,0.00,VWS V14.01,2013-09-21 17:05:00,
2013-09-21 12:10:00,57.1,46.7,30.00,North,352,3.0,11.0,68,0.00,,,0.00,VWS V14.01,2013-09-21 17:10:00,
2013-09-21 12:15:00,57.1,46.7,30.00,NW,312,3.0,11.0,68,0.00,,,0.00,VWS V14.01,2013-09-21 17:15:00,
2013-09-21 12:20:00,57.1,46.7,30.00,North,350,0.0,11.0,68,0.00,,,0.00,VWS V14.01,2013-09-21 17:20:00,
2013-09-21 12:25:00,57.2,46.8,29.99,WNW,294,0.0,11.0,68,0.00,,,0.00,VWS V14.01,2013-09-21 17:25:00,
2013-09-21 12:30:00,57.4,46.2,29.99,NW,309,0.0,11.0,66,0.00,,,0.00,VWS V14.01,2013-09-21 17:30:00,
2013-09-21 12:35:00,57.4,46.2,29.99,NW,306,0.0,7.0,66,0.00,,,0.00,VWS V14.01,2013-09-21 17:35:00,
2013-09-21 12:41:00,57.8,46.9,29.99,NW,305,1.0,7.0,67,0.00,,,0.00,VWS V14.01,2013-09-21 17:41:00,
2013-09-21 12:46:00,58.2,47.3,29.99,WSW,254,4.0,11.0,67,0.00,,,0.00,VWS V14.01,2013-09-21 17:46:00,
2013-09-21 12:51:00,58.4,47.1,29.99,South,188,0.0,11.0,66,0.00,,,0.00,VWS V14.01,2013-09-21 17:51:00,
2013-09-21 12:56:00,58.8,48.3,29.99,South,175,0.0,11.0,68,0.00,,,0.00,VWS V14.01,2013-09-21 17:56:00,
2013-09-21 13:00:00,59.1,47.8,29.98,NW,316,0.0,11.0,66,0.00,,,0.00,VWS V15.00,2013-09-21 18:00:00,
2013-09-21 13:01:00,59.1,47.8,29.98,NW,316,0.0,11.0,66,0.00,,,0.00,VWS V14.01,2013-09-21 18:01:00,
2013-09-21 13:06:00,59.0,47.7,29.98,NW,321,0.0,6.0,66,0.00,,,0.00,VWS V14.01,2013-09-21 18:06:00,
2013-09-21 13:11:00,58.9,47.6,29.98,NW,321,0.0,6.0,66,0.00,,,0.00,VWS V14.01,2013-09-21 18:11:00,
2013-09-21 13:16:00,59.1,47.4,29.98,NW,311,6.0,6.0,65,0.00,,,0.00,VWS V14.01,2013-09-21 18:16:00,
2013-09-21 13:21:00,59.1,47.8,29.98,NW,325,0.0,6.0,66,0.00,,,0.00,VWS V14.01,2013-09-21 18:21:00,
2013-09-21 13:26:00,59.2,47.5,29.98,NNW,341,5.0,11.0,65,0.00,,,0.00,VWS V14.01,2013-09-21 18:26:00,
2013-09-21 13:31:00,59.3,47.1,29.97,NW,319,0.0,0.0,64,0.00,,,0.00,VWS V14.01,2013-09-21 18:31:00,
2013-09-21 13:36:00,59.3,47.1,29.97,WNW,298,0.0,12.0,64,0.00,,,0.00,VWS V14.01,2013-09-21 18:36:00,
2013-09-21 13:41:00,59.3,47.5,29.97,NW,323,1.0,12.0,65,0.00,,,0.00,VWS V14.01,2013-09-21 18:41:00,
2013-09-21 13:46:00,59.5,47.7,29.97,NW,316,5.0,12.0,65,0.00,,,0.00,VWS V14.01,2013-09-21 18:46:00,
2013-09-21 13:51:00,59.6,48.2,29.97,NW,321,2.0,12.0,66,0.00,,,0.00,VWS V14.01,2013-09-21 18:51:00,
2013-09-21 13:56:00,59.7,47.5,29.97,NW,322,0.0,12.0,64,0.00,,,0.00,VWS V14.01,2013-09-21 18:56:00,
2013-09-21 14:01:00,59.8,47.2,29.97,NNW,345,5.0,5.0,63,0.00,,,0.00,VWS V14.01,2013-09-21 19:01:00,
2013-09-21 14:06:00,60.1,48.7,29.97,NW,317,5.0,9.0,66,0.00,,,0.00,VWS V14.01,2013-09-21 19:06:00,
2013-09-21 14:11:00,60.4,48.6,29.96,NW,310,5.0,10.0,65,0.00,,,0.00,VWS V14.01,2013-09-21 19:11:00,
2013-09-21 14:17:00,60.6,48.0,29.96,WNW,284,0.0,10.0,63,0.00,,,0.00,VWS V14.01,2013-09-21 19:17:00,
2013-09-21 14:22:00,60.8,48.6,29.96,NW,310,7.0,10.0,64,0.00,,,0.00,VWS V14.01,2013-09-21 19:22:00,
2013-09-21 14:27:00,60.9,48.7,29.96,WNW,282,0.0,10.0,64,0.00,,,0.00,VWS V14.01,2013-09-21 19:27:00,
2013-09-21 14:32:00,61.0,47.9,29.96,South,189,3.0,6.0,62,0.00,,,0.00,VWS V14.01,2013-09-21 19:32:00,
2013-09-21 14:37:00,61.3,48.2,29.96,WNW,298,0.0,6.0,62,0.00,,,0.00,VWS V14.01,2013-09-21 19:37:00,
2013-09-21 14:42:00,61.5,47.9,29.95,NW,308,1.0,6.0,61,0.00,,,0.00,VWS V14.01,2013-09-21 19:42:00,
2013-09-21 14:47:00,61.5,48.4,29.95,WNW,293,1.0,7.0,62,0.00,,,0.00,VWS V14.01,2013-09-21 19:47:00,
2013-09-21 14:52:00,61.6,48.5,29.95,NNW,333,2.0,11.0,62,0.00,,,0.00,VWS V14.01,2013-09-21 19:52:00,
2013-09-21 14:57:00,61.8,48.7,29.95,WSW,245,1.0,11.0,62,0.00,,,0.00,VWS V14.01,2013-09-21 19:57:00,
2013-09-21 15:00:00,62.1,48.1,29.95,NW,304,0.0,11.0,60,0.00,,,0.00,VWS V15.00,2013-09-21 20:00:00,
2013-09-21 15:02:00,62.1,48.5,29.95,NW,310,5.0,6.0,61,0.00,,,0.00,VWS V14.01,2013-09-21 20:02:00,
2013-09-21 15:07:00,62.1,48.1,29.94,West,274,1.0,6.0,60,0.00,,,0.00,VWS V14.01,2013-09-21 20:07:00,
2013-09-21 15:12:00,62.1,48.5,29.94,WNW,296,0.0,6.0,61,0.00,,,0.00,VWS V14.01,2013-09-21 20:12:00,
2013-09-21 15:17:00,62.1,48.1,29.94,WNW,296,0.0,6.0,60,0.00,,,0.00,VWS V14.01,2013-09-21 20:17:00,
2013-09-21 15:22:00,62.3,47.8,29.94,WNW,286,0.0,6.0,59,0.00,,,0.00,VWS V14.01,2013-09-21 20:22:00,
2013-09-21 15:27:00,62.3,48.7,29.93,West,271,1.0,6.0,61,0.00,,,0.00,VWS V14.01,2013-09-21 20:27:00,
2013-09-21 15:30:00,62.5,48.4,29.93,West,271,0.0,6.0,60,0.00,,,0.00,VWS V15.00,2013-09-21 20:30:00,
2013-09-21 15:32:00,62.5,48.9,29.93,North,4,5.0,6.0,61,0.00,,,0.00,VWS V14.01,2013-09-21 20:32:00,
2013-09-21 15:37:00,62.4,47.9,29.93,NW,304,0.0,6.0,59,0.00,,,0.00,VWS V14.01,2013-09-21 20:37:00,
2013-09-21 15:42:00,62.5,48.9,29.93,NW,307,3.0,9.0,61,0.00,,,0.00,VWS V14.01,2013-09-21 20:42:00,
2013-09-21 15:47:00,62.4,47.5,29.93,North,2,2.0,9.0,58,0.00,,,0.00,VWS V14.01,2013-09-21 20:47:00,
2013-09-21 15:52:00,62.4,48.8,29.93,NW,308,0.0,9.0,61,0.00,,,0.00,VWS V14.01,2013-09-21 20:52:00,
2013-09-21 15:57:00,62.5,48.4,29.93,NW,306,0.0,9.0,60,0.00,,,0.00,VWS V14.01,2013-09-21 20:57:00,
2013-09-21 16:02:00,62.6,48.5,29.92,NNW,327,4.0,6.0,60,0.00,,,0.00,VWS V14.01,2013-09-21 21:02:00,
2013-09-21 16:07:00,62.6,48.1,29.92,North,354,0.0,6.0,59,0.00,,,0.00,VWS V14.01,2013-09-21 21:07:00,
2013-09-21 16:12:00,62.8,48.7,29.92,NNE,21,0.0,6.0,60,0.00,,,0.00,VWS V14.01,2013-09-21 21:12:00,
2013-09-21 16:18:00,62.9,49.7,29.92,WNW,300,1.0,6.0,62,0.00,,,0.00,VWS V14.01,2013-09-21 21:18:00,
2013-09-21 16:23:00,63.1,49.5,29.92,SSW,193,0.0,6.0,61,0.00,,,0.00,VWS V14.01,2013-09-21 21:23:00,
2013-09-21 16:28:00,63.2,49.1,29.92,NW,304,1.0,6.0,60,0.00,,,0.00,VWS V14.01,2013-09-21 21:28:00,
2013-09-21 16:33:00,63.3,49.2,29.92,NW,304,0.0,0.0,60,0.00,,,0.00,VWS V14.01,2013-09-21 21:33:00,
2013-09-21 16:38:00,63.4,48.4,29.92,NW,306,0.0,5.0,58,0.00,,,0.00,VWS V14.01,2013-09-21 21:38:00,
2013-09-21 16:43:00,63.4,49.3,29.92,NW,305,0.0,5.0,60,0.00,,,0.00,VWS V14.01,2013-09-21 21:43:00,
2013-09-21 16:48:00,63.3,49.6,29.92,NW,308,0.0,5.0,61,0.00,,,0.00,VWS V14.01,2013-09-21 21:48:00,
2013-09-21 16:53:00,63.0,48.9,29.92,NW,311,2.0,6.0,60,0.00,,,0.00,VWS V14.01,2013-09-21 21:53:00,
2013-09-21 16:58:00,62.8,48.7,29.91,NW,311,0.0,6.0,60,0.00,,,0.00,VWS V14.01,2013-09-21 21:58:00,
2013-09-21 17:03:00,62.7,49.5,29.91,WNW,301,0.0,3.0,62,0.00,,,0.00,VWS V14.01,2013-09-21 22:03:00,
2013-09-21 17:08:00,62.7,49.1,29.91,WNW,291,0.0,4.0,61,0.00,,,0.00,VWS V14.01,2013-09-21 22:08:00,
2013-09-21 17:13:00,62.6,49.0,29.91,WNW,291,0.0,4.0,61,0.00,,,0.00,VWS V14.01,2013-09-21 22:13:00,
2013-09-21 17:18:00,62.4,48.8,29.91,WNW,291,0.0,4.0,61,0.00,,,0.00,VWS V14.01,2013-09-21 22:18:00,
2013-09-21 17:23:00,62.3,49.1,29.91,WNW,291,1.0,4.0,62,0.00,,,0.00,VWS V14.01,2013-09-21 22:23:00,
2013-09-21 17:28:00,62.2,49.5,29.91,WNW,287,0.0,4.0,63,0.00,,,0.00,VWS V14.01,2013-09-21 22:28:00,
2013-09-21 17:33:00,62.1,48.9,29.91,WNW,287,0.0,2.0,62,0.00,,,0.00,VWS V14.01,2013-09-21 22:33:00,
2013-09-21 17:38:00,62.0,49.3,29.91,WNW,287,0.0,3.0,63,0.00,,,0.00,VWS V14.01,2013-09-21 22:38:00,
2013-09-21 17:43:00,61.9,49.2,29.91,WNW,285,0.0,3.0,63,0.00,,,0.00,VWS V14.01,2013-09-21 22:43:00,
2013-09-21 17:48:00,61.9,49.2,29.91,WNW,288,1.0,3.0,63,0.00,,,0.00,VWS V14.01,2013-09-21 22:48:00,
2013-09-21 17:53:00,61.8,48.2,29.91,WNW,298,0.0,4.0,61,0.00,,,0.00,VWS V14.01,2013-09-21 22:53:00,
2013-09-21 17:58:00,61.8,49.5,29.91,WNW,300,0.0,5.0,64,0.00,,,0.00,VWS V14.01,2013-09-21 22:58:00,
2013-09-21 18:03:00,61.8,49.5,29.91,WNW,286,0.0,0.0,64,0.00,,,0.00,VWS V14.01,2013-09-21 23:03:00,
2013-09-21 18:08:00,61.7,49.4,29.91,WNW,286,0.0,2.0,64,0.00,,,0.00,VWS V14.01,2013-09-21 23:08:00,
2013-09-21 18:13:00,61.6,49.3,29.91,WNW,286,0.0,2.0,64,0.00,,,0.00,VWS V14.01,2013-09-21 23:13:00,
2013-09-21 18:18:00,61.5,48.8,29.91,WNW,286,0.0,2.0,63,0.00,,,0.00,VWS V14.01,2013-09-21 23:18:00,
2013-09-21 18:23:00,61.3,49.5,29.91,WNW,287,0.0,2.0,65,0.00,,,0.00,VWS V14.01,2013-09-21 23:23:00,
2013-09-21 18:28:00,61.2,49.3,29.91,WNW,286,0.0,2.0,65,0.00,,,0.00,VWS V14.01,2013-09-21 23:28:00,
2013-09-21 18:30:00,61.1,49.3,29.91,WNW,286,0.0,2.0,65,0.00,,,0.00,VWS V15.00,2013-09-21 23:30:00,
2013-09-21 18:34:00,61.0,48.8,29.91,WNW,286,0.0,0.0,64,0.00,,,0.00,VWS V14.01,2013-09-21 23:34:00,
2013-09-21 18:39:00,60.9,49.5,29.91,WNW,286,0.0,0.0,66,0.00,,,0.00,VWS V14.01,2013-09-21 23:39:00,
2013-09-21 18:44:00,60.7,48.9,29.91,WNW,286,0.0,0.0,65,0.00,,,0.00,VWS V14.01,2013-09-21 23:44:00,
2013-09-21 18:49:00,60.6,50.4,29.91,WNW,286,0.0,0.0,69,0.00,,,0.00,VWS V14.01,2013-09-21 23:49:00,
2013-09-21 18:54:00,60.4,51.0,29.91,WNW,287,0.0,0.0,71,0.00,,,0.00,VWS V14.01,2013-09-21 23:54:00,
2013-09-21 18:59:00,60.2,51.5,29.91,WNW,287,0.0,0.0,73,0.00,,,0.00,VWS V14.01,2013-09-21 23:59:00,
2013-09-21 19:00:00,60.0,51.3,29.91,WNW,287,0.0,0.0,73,0.00,,,0.00,VWS V15.00,2013-09-22 00:00:00,
2013-09-21 19:04:00,59.7,50.7,29.91,WNW,287,0.0,0.0,72,0.00,,,0.00,VWS V14.01,2013-09-22 00:04:00,
2013-09-21 19:09:00,59.2,50.2,29.91,WNW,286,0.0,0.0,72,0.00,,,0.00,VWS V14.01,2013-09-22 00:09:00,
2013-09-21 19:14:00,58.6,50.0,29.91,WNW,286,0.0,0.0,73,0.00,,,0.00,VWS V14.01,2013-09-22 00:14:00,
2013-09-21 19:19:00,58.2,50.0,29.91,WNW,286,0.0,0.0,74,0.00,,,0.00,VWS V14.01,2013-09-22 00:19:00,
2013-09-21 19:24:00,57.7,50.2,29.91,WNW,286,0.0,0.0,76,0.00,,,0.00,VWS V14.01,2013-09-22 00:24:00,
2013-09-21 19:29:00,57.3,50.2,29.91,WNW,287,0.0,0.0,77,0.00,,,0.00,VWS V14.01,2013-09-22 00:29:00,
2013-09-21 19:30:00,57.1,50.0,29.91,WNW,287,0.0,0.0,77,0.00,,,0.00,VWS V15.00,2013-09-22 00:30:00,
2013-09-21 19:34:00,56.8,49.7,29.91,WNW,286,0.0,0.0,77,0.00,,,0.00,VWS V14.01,2013-09-22 00:34:00,
2013-09-21 19:39:00,56.3,49.5,29.91,WNW,286,0.0,0.0,78,0.00,,,0.00,VWS V14.01,2013-09-22 00:39:00,
2013-09-21 19:44:00,55.6,48.5,29.91,WNW,286,0.0,0.0,77,0.00,,,0.00,VWS V14.01,2013-09-22 00:44:00,
2013-09-21 19:49:00,55.0,47.9,29.91,WNW,286,0.0,0.0,77,0.00,,,0.00,VWS V14.01,2013-09-22 00:49:00,
2013-09-21 19:54:00,54.6,47.9,29.91,WNW,286,0.0,0.0,78,0.00,,,0.00,VWS V14.01,2013-09-22 00:54:00,
2013-09-21 19:59:00,54.3,48.3,29.91,WNW,286,0.0,0.0,80,0.00,,,0.00,VWS V14.01,2013-09-22 00:59:00,
2013-09-21 20:04:00,53.8,47.8,29.91,WNW,286,0.0,0.0,80,0.00,,,0.00,VWS V14.01,2013-09-22 01:04:00,
2013-09-21 20:09:00,53.5,47.5,29.91,WNW,287,0.0,0.0,80,0.00,,,0.00,VWS V14.01,2013-09-22 01:09:00,
2013-09-21 20:14:00,53.2,47.2,29.91,WNW,286,0.0,0.0,80,0.00,,,0.00,VWS V14.01,2013-09-22 01:14:00,
2013-09-21 20:19:00,53.1,47.1,29.91,WNW,286,0.0,0.0,80,0.00,,,0.00,VWS V14.01,2013-09-22 01:19:00,
2013-09-21 20:25:00,53.0,47.3,29.92,WNW,286,0.0,0.0,81,0.00,,,0.00,VWS V14.01,2013-09-22 01:25:00,
2013-09-21 20:30:00,52.8,47.1,29.92,WNW,287,0.0,0.0,81,0.00,,,0.00,VWS V14.01,2013-09-22 01:30:00,
2013-09-21 20:35:00,52.6,46.9,29.92,WNW,287,0.0,0.0,81,0.00,,,0.00,VWS V14.01,2013-09-22 01:35:00,
2013-09-21 20:40:00,52.4,46.8,29.92,WNW,287,0.0,0.0,81,0.00,,,0.00,VWS V14.01,2013-09-22 01:40:00,
2013-09-21 20:45:00,52.1,46.8,29.92,WNW,287,0.0,0.0,82,0.00,,,0.00,VWS V14.01,2013-09-22 01:45:00,
2013-09-21 20:50:00,51.8,46.5,29.92,WNW,287,0.0,0.0,82,0.00,,,0.00,VWS V14.01,2013-09-22 01:50:00,
2013-09-21 20:55:00,51.6,46.6,29.92,WNW,287,0.0,0.0,83,0.00,,,0.00,VWS V14.01,2013-09-22 01:55:00,
2013-09-21 21:00:00,51.3,46.3,29.92,WNW,286,0.0,0.0,83,0.00,,,0.00,VWS V14.01,2013-09-22 02:00:00,
2013-09-21 21:05:00,51.1,46.1,29.92,WNW,286,0.0,0.0,83,0.00,,,0.00,VWS V14.01,2013-09-22 02:05:00,
2013-09-21 21:10:00,50.8,45.8,29.92,WNW,287,0.0,0.0,83,0.00,,,0.00,VWS V14.01,2013-09-22 02:10:00,
2013-09-21 21:15:00,50.6,45.6,29.92,WNW,287,0.0,0.0,83,0.00,,,0.00,VWS V14.01,2013-09-22 02:15:00,
2013-09-21 21:20:00,50.4,45.4,29.92,WNW,286,0.0,0.0,83,0.00,,,0.00,VWS V14.01,2013-09-22 02:20:00,
2013-09-21 21:25:00,50.2,45.6,29.92,WNW,286,0.0,0.0,84,0.00,,,0.00,VWS V14.01,2013-09-22 02:25:00,
2013-09-21 21:30:00,50.1,45.5,29.92,WNW,286,0.0,0.0,84,0.00,,,0.00,VWS V14.01,2013-09-22 02:30:00,
2013-09-21 21:35:00,49.9,45.3,29.92,WNW,287,0.0,0.0,84,0.00,,,0.00,VWS V14.01,2013-09-22 02:35:00,
2013-09-21 21:40:00,49.7,45.1,29.92,WNW,286,0.0,0.0,84,0.00,,,0.00,VWS V14.01,2013-09-22 02:40:00,
2013-09-21 21:45:00,49.5,44.9,29.93,WNW,287,0.0,0.0,84,0.00,,,0.00,VWS V14.01,2013-09-22 02:45:00,
2013-09-21 21:50:00,49.4,44.8,29.93,WNW,287,0.0,0.0,84,0.00,,,0.00,VWS V14.01,2013-09-22 02:50:00,
2013-09-21 21:55:00,49.3,45.0,29.93,WNW,287,0.0,0.0,85,0.00,,,0.00,VWS V14.01,2013-09-22 02:55:00,
2013-09-21 22:00:00,49.2,44.9,29.93,WNW,285,0.0,0.0,85,0.00,,,0.00,VWS V14.01,2013-09-22 03:00:00,
2013-09-21 22:05:00,49.0,44.7,29.93,WNW,286,0.0,0.0,85,0.00,,,0.00,VWS V14.01,2013-09-22 03:05:00,
2013-09-21 22:10:00,48.9,44.6,29.93,WNW,287,0.0,0.0,85,0.00,,,0.00,VWS V14.01,2013-09-22 03:10:00,
2013-09-21 22:15:00,48.8,44.5,29.93,WNW,287,0.0,0.0,85,0.00,,,0.00,VWS V14.01,2013-09-22 03:15:00,
2013-09-21 22:21:00,48.6,44.3,29.93,WNW,287,0.0,0.0,85,0.00,,,0.00,VWS V14.01,2013-09-22 03:21:00,
2013-09-21 22:26:00,48.5,44.2,29.94,WNW,287,0.0,0.0,85,0.00,,,0.00,VWS V14.01,2013-09-22 03:26:00,
2013-09-21 22:31:00,48.3,44.0,29.94,WNW,286,0.0,0.0,85,0.00,,,0.00,VWS V14.01,2013-09-22 03:31:00,
2013-09-21 22:36:00,48.2,44.2,29.94,WNW,287,0.0,0.0,86,0.00,,,0.00,VWS V14.01,2013-09-22 03:36:00,
2013-09-21 22:41:00,48.1,44.1,29.94,WNW,286,0.0,0.0,86,0.00,,,0.00,VWS V14.01,2013-09-22 03:41:00,
2013-09-21 22:46:00,48.0,44.0,29.94,WNW,286,0.0,0.0,86,0.00,,,0.00,VWS V14.01,2013-09-22 03:46:00,
2013-09-21 22:51:00,47.9,43.9,29.94,WNW,286,0.0,0.0,86,0.00,,,0.00,VWS V14.01,2013-09-22 03:51:00,
2013-09-21 22:56:00,47.7,43.7,29.94,WNW,286,0.0,0.0,86,0.00,,,0.00,VWS V14.01,2013-09-22 03:56:00,
2013-09-21 23:01:00,47.5,43.5,29.94,WNW,286,0.0,0.0,86,0.00,,,0.00,VWS V14.01,2013-09-22 04:01:00,
2013-09-21 23:03:00,47.5,43.5,29.94,WNW,287,0.0,0.0,86,0.00,,,0.00,VWS V14.01,2013-09-22 04:03:00,
2013-09-21 23:06:00,47.3,43.3,29.94,WNW,287,0.0,0.0,86,0.00,,,0.00,VWS V14.01,2013-09-22 04:06:00,
2013-09-21 23:11:00,47.2,43.2,29.95,WNW,287,0.0,0.0,86,0.00,,,0.00,VWS V14.01,2013-09-22 04:11:00,
2013-09-21 23:16:00,47.0,43.0,29.95,WNW,287,0.0,0.0,86,0.00,,,0.00,VWS V14.01,2013-09-22 04:16:00,
2013-09-21 23:21:00,46.9,43.2,29.95,WNW,286,0.0,0.0,87,0.00,,,0.00,VWS V14.01,2013-09-22 04:21:00,
2013-09-21 23:26:00,46.8,43.1,29.95,WNW,287,0.0,0.0,87,0.00,,,0.00,VWS V14.01,2013-09-22 04:26:00,
2013-09-21 23:31:00,46.7,43.0,29.95,WNW,286,0.0,0.0,87,0.00,,,0.00,VWS V14.01,2013-09-22 04:31:00,
2013-09-21 23:36:00,46.6,42.9,29.95,WNW,286,0.0,0.0,87,0.00,,,0.00,VWS V14.01,2013-09-22 04:36:00,
2013-09-21 23:41:00,46.5,42.8,29.94,WNW,287,0.0,0.0,87,0.00,,,0.00,VWS V14.01,2013-09-22 04:41:00,
2013-09-21 23:46:00,46.4,42.8,29.94,WNW,287,0.0,0.0,87,0.00,,,0.00,VWS V14.01,2013-09-22 04:46:00,
2013-09-21 23:51:00,46.5,42.8,29.94,WNW,287,0.0,0.0,87,0.00,,,0.00,VWS V14.01,2013-09-22 04:51:00,
2013-09-21 23:56:00,46.6,43.2,29.94,WNW,287,0.0,0.0,88,0.00,,,0.00,VWS V14.01,2013-09-22 04:56:00,